Regional Weather Roundup
Issued by NWS

Home | Current Version | Previous Version | Graphics & Text | Print | Product List | Glossary Off
Versions: 1 2 3 4 5 6 7 8 9 10 11 12 13 14 15 16 17 18 19 20 21 22 23 24 25 26 27 28 29 30 31 32 33 34 35 36 37 38 39 40 41 42 43 44 45 46 47 48 49 50

000
ASUS43 KTOP 222159
RWRKS

WEATHER ROUNDUP FOR KANSAS
NATIONAL WEATHER SERVICE GOODLAND KS
500 PM CDT MON AUG 22 2016

NOTE:  "FAIR" INDICATES FEW OR NO CLOUDS BELOW 12,000 FEET WITH NO
SIGNIFICANT WEATHER AND/OR OBSTRUCTIONS TO VISIBILITY.

KSZ001>006-013>018-027>032-041>047-222300-
NORTHWEST KANSAS

CITY           SKY/WX    TMP DP  RH WIND       PRES   REMARKS
GOODLAND       CLOUDY    88  55  32 S29G39    29.89F
HAYS           SUNNY     90  57  33 S25       29.93F
HILL CITY      SUNNY     89  58  34 S17G29    29.90F
RUSSELL        SUNNY     87  57  35 S23G30    29.93F
$$

KSZ061>065-074>080-084>089-222300-
SOUTHWEST KANSAS

CITY           SKY/WX    TMP DP  RH WIND       PRES   REMARKS
DODGE CITY     SUNNY     90  54  29 S22G30    29.96F
ELKHART          N/A     86  59  40 S22         N/A
GARDEN CITY    MOSUNNY   86  58  38 S22G32    29.93F
GREAT BEND     SUNNY     86  55  35 S21G30    29.96S
LIBERAL        MOSUNNY   88  57  35 SE28G35   29.96F
$$

KSZ066>073-081>083-090>101-222300-
SOUTHEAST KANSAS

CITY           SKY/WX    TMP DP  RH WIND       PRES   REMARKS
CHANUTE        MOSUNNY   85  62  46 S12       30.05F
COFFEYVILLE    SUNNY     87  59  38 S13       30.04F
HUTCHINSON     CLOUDY    83  57  41 SE14      30.00F
MEDICINE LODGE   N/A     89  51  27 S12G21    29.97F
NEWTON         MOSUNNY   81  57  43 SE14      30.03F
PARSONS        SUNNY     86  61  42 S9        30.05F
WICHITA INTL   PTSUNNY   85  59  41 SE12      30.00F
WICHITA JABRA  MOSUNNY   83  61  47 SE14      30.02F
WINFIELD       MOSUNNY   84  60  44 SE13      30.03F
$$

KSZ007>012-019>026-033>040-048>060-102>105-222300-
NORTHEAST KANSAS

CITY           SKY/WX    TMP DP  RH WIND       PRES   REMARKS
CONCORDIA      CLOUDY    84  57  39 S18G30    29.97F
EMPORIA        MOSUNNY   82  62  50 S15       30.04F
LAWRENCE       SUNNY     83  61  47 S13G22    30.04F
MANHATTAN      MOSUNNY   84  60  44 S16       30.00F
OLATHE IND     SUNNY     82  60  47 S13       30.07F
OLATHE EXE     SUNNY     80  59  48 S13       30.07F
SALINA         PTSUNNY   86  56  35 SE23      29.99F
TOPEKA BILLARD SUNNY     83  61  47 S13       30.03F
TOPEKA FORBES  SUNNY     84  62  47 S12       30.04F
$$




USA.gov is the U.S. government's official web portal to all federal, state and local government web resources and services.